Home   Weather   Kleve   Past weeks

Flag for Germany Past Weather in Kleve, North Rhine-Westphalia, Germany — Yesterday and Last 2 Weeks

Now
27 °F

Ice fog.


Feels Like: 27 °F
Forecast: 29 / 37 °F
Wind: No wind

Location: Niederrhein

Current Time: Dec 5, 2016 at 9:47:52 pm

Latest Report: Dec 5, 2016 at 8:50 pm


Visibility: 3 mi

Pressure: 30.33 "Hg

Humidity: 100%

Dew Point: 27 °F

Location of KleveLocation

Past Weather in Kleve — Graph

°F

Kleve Temperature Yesterday

Maximum temperature yesterday: 39 °F (at 1:20 pm)
Minimum temperature yesterday: 25 °F (at 4:50 am)
Average temperature yesterday: 31 °F

High & Low Weather Summary for the Past Weeks

 TemperatureHumidityPressure
High57 °F (Nov 21, 1:20 pm)100% (Nov 20, 10:50 pm)30.60 "Hg (Nov 20, 10:50 pm)
Low21 °F (Nov 30, 4:50 am)50% (Nov 25, 2:20 pm)29.45 "Hg (Nov 21, 4:20 pm)
Average40 °F89%30.18 "Hg
* Reported Nov 20 8:20 pm — Dec 5 8:20 pm, Kleve, Weather by CustomWeather, © 2016

Note: Actual official high and low records may vary slightly from our data, if they occured in-between our weather recording intervals... More about our weather records

Advertising

Kleve Weather History for the Previous 24 Hours

Scroll right to see more
 ConditionsComfort  
Time TempWeatherWind HumidityBarometerVisibility
8:20 pm
Mon, Dec 5
28 °FClear.No wind100%30.33 "Hg4 mi
7:50 pm28 °FClear.No wind100%30.33 "Hg4 mi
7:20 pm28 °FClear.No wind100%30.33 "Hg6 mi
6:50 pm28 °FClear.No wind100%30.33 "Hg10 mi
6:20 pm32 °FClear.No wind93%30.30 "Hg10 mi
5:50 pm32 °FClear.No wind93%30.33 "Hg10 mi
5:20 pm32 °FSunny.No wind87%30.30 "Hg10 mi
4:50 pm36 °FSunny.No wind81%30.30 "Hg10 mi
4:20 pm37 °FSunny.No wind75%30.30 "Hg10 mi
3:50 pm39 °FSunny.3 mph70%30.30 "Hg10 mi
3:20 pm39 °FSunny.3 mph70%30.30 "Hg10 mi
2:50 pm39 °FSunny.3 mph70%30.30 "Hg10 mi
2:20 pm39 °FPassing clouds.5 mph70%30.30 "HgN/A
1:50 pm39 °FSunny.3 mph70%30.30 "Hg10 mi
1:20 pm37 °FSunny.3 mph70%30.30 "Hg10 mi
12:50 pm37 °FPassing clouds.5 mph70%30.30 "HgN/A
12:20 pm37 °FSunny.3 mph70%30.30 "Hg10 mi
11:50 am36 °FSunny.6 mph75%30.33 "Hg10 mi
11:20 am34 °FPassing clouds.6 mph75%30.33 "HgN/A
10:50 am34 °FPassing clouds.5 mph81%30.33 "HgN/A
10:20 am32 °FSunny.5 mph80%30.33 "Hg10 mi
9:50 am30 °FSunny.6 mph86%30.30 "Hg10 mi
9:20 am27 °FClear.7 mph86%30.30 "Hg10 mi
8:50 am25 °FClear.5 mph86%30.30 "Hg10 mi
8:20 am25 °FClear.2 mph86%30.30 "Hg10 mi
7:50 am28 °FClear.3 mph80%30.30 "Hg10 mi
7:20 am27 °FClear.3 mph80%30.30 "Hg10 mi
6:50 am28 °FClear.5 mph80%30.30 "Hg10 mi
6:20 am25 °FClear.6 mph86%30.30 "Hg10 mi
5:50 am25 °FClear.6 mph80%30.30 "Hg10 mi
5:20 am28 °FClear.5 mph80%30.30 "Hg10 mi
4:50 am28 °FClear.3 mph74%30.30 "Hg10 mi
11:50 pm
Sun, Dec 4
28 °FClear.9 mph80%30.33 "Hg10 mi
11:20 pm25 °FClear.7 mph93%30.33 "Hg10 mi
10:50 pm28 °FPassing clouds.5 mph86%30.33 "HgN/A
10:20 pm28 °FClear.2 mph80%30.33 "Hg10 mi
9:50 pm32 °FClear.3 mph75%30.33 "Hg10 mi
9:20 pm30 °FPassing clouds.5 mph86%30.33 "HgN/A
Weather by CustomWeather, © 2016

See weather overviewHow to use our weather pages